FW0158 Weather Reports


Display with metric or nautical units.
time (UTC)temp
F
wind
direction
speed
MPH
gust
MPH
rain 1hr
in
rain 24hr
in
rain mn
in
humidity
%
barometer
mb
20260506032727 70 206 4.0 10.0 0.00 0.00 0.01 68 1009.7
20260506031833 70 224 3.0 10.0 0.00 0.00 0.01 68 1010.0
20260506031403 70 213 3.0 7.0 0.00 0.00 0.01 68 1010.0
20260506030724 70 220 3.0 8.0 0.00 0.00 0.01 68 1010.0
20260506030044 70 218 2.0 8.0 0.00 0.00 0.01 68 1009.7
20260506024513 70 215 3.0 10.0 0.00 0.00 0.01 67 1009.7
20260506023620 70 203 3.0 9.0 0.00 0.00 0.01 67 1009.7
20260506022514 70 215 2.0 7.0 0.00 0.00 0.01 68 1009.7
20260506021833 70 235 2.0 7.0 0.00 0.00 0.01 67 1009.7
20260506021154 70 191 1.0 6.0 0.00 0.00 0.01 68 1009.3
20260506020724 70 196 2.0 6.0 0.00 0.00 0.01 68 1009.7
20260506014513 70 212 2.0 6.0 0.00 0.00 0.01 67 1009.3
20260506014300 70 219 2.0 11.0 0.00 0.00 0.01 67 1009.0
20260506013403 70 211 5.0 11.0 0.00 0.00 0.01 67 1009.3
20260506011833 70 219 3.0 8.0 0.00 0.00 0.01 66 1009.0
20260506011153 70 213 4.0 10.0 0.00 0.00 0.01 66 1009.0
20260506010514 70 216 4.0 10.0 0.00 0.00 0.01 66 1009.0
20260506005834 71 216 4.0 11.0 0.00 0.00 0.01 66 1009.0
20260506005406 70 232 4.0 12.0 0.00 0.00 0.01 66 1009.3
20260506003403 71 214 4.0 14.0 0.00 0.00 0.01 66 1009.7
20260506002937 71 215 4.0 12.0 0.00 0.00 0.01 64 1009.7
20260506001153 71 198 5.0 12.0 0.00 0.00 0.01 62 1009.3
20260506000726 71 208 5.0 11.0 0.00 0.00 0.01 62 1009.3
20260505235833 71 212 5.0 11.0 0.00 0.00 0.01 62 1009.3
20260505235620 71 213 3.0 14.0 0.00 0.00 0.01 62 1009.3
20260505234513 72 216 5.0 14.0 0.00 0.00 0.01 61 1009.3
20260505234043 72 212 3.0 12.0 0.00 0.00 0.01 61 1009.3
20260505233154 72 187 5.0 11.0 0.00 0.00 0.01 60 1009.3
20260505231406 72 212 5.0 14.0 0.00 0.00 0.01 60 1009.7
20260505225833 72 216 5.0 12.0 0.00 0.00 0.01 59 1009.7
20260505224514 72 217 6.0 13.0 0.00 0.00 0.01 58 1009.7
20260505224257 72 207 4.0 15.0 0.00 0.00 0.01 58 1009.7
20260505223404 72 217 7.0 13.0 0.00 0.00 0.01 57 1009.7
20260505222513 72 209 3.0 12.0 0.00 0.00 0.01 57 1009.7
20260505221834 72 217 5.0 11.0 0.00 0.00 0.01 56 1009.7
20260505221407 72 210 5.0 16.0 0.00 0.00 0.01 56 1009.7
20260505220043 72 201 4.0 12.0 0.00 0.00 0.01 56 1010.0
20260505215153 72 219 4.0 10.0 0.00 0.00 0.01 56 1010.0
20260505214513 72 217 3.0 12.0 0.00 0.00 0.01 56 1010.0
20260505214511 72 211 6.0 12.0 0.00 0.00 0.01 56 1010.0
20260505212939 72 206 4.0 11.0 0.00 0.00 0.01 56 1010.0
20260505211153 73 207 4.0 10.0 0.00 0.00 0.01 54 1010.0
20260505210514 73 199 4.0 12.0 0.00 0.00 0.01 55 1010.4
20260505205154 73 203 4.0 11.0 0.00 0.00 0.01 53 1010.0
20260505203833 73 205 4.0 10.0 0.00 0.00 0.01 53 1010.0
20260505203153 72 192 3.0 12.0 0.00 0.00 0.01 54 1010.4
20260505202513 72 190 3.0 16.0 0.00 0.00 0.01 53 1010.7
20260505202047 72 206 3.0 16.0 0.00 0.00 0.01 53 1010.7
20260505201154 72 204 3.0 12.0 0.00 0.00 0.01 54 1011.1
20260505195153 73 185 5.0 17.0 0.00 0.00 0.01 51 1010.7
20260505193407 73 173 6.0 12.0 0.00 0.00 0.01 49 1010.7
20260505192513 74 193 5.0 12.0 0.00 0.00 0.01 48 1011.1
20260505191154 72 206 6.0 12.0 0.00 0.00 0.01 53 1011.4
20260505185834 70 213 3.0 8.0 0.00 0.00 0.01 60 1011.4
20260505184513 69 213 3.0 12.0 0.00 0.00 0.01 63 1011.8
20260505183407 69 173 3.0 6.0 0.00 0.00 0.01 65 1011.8
20260505182723 69 194 2.0 6.0 0.00 0.00 0.01 65 1011.8
20260505181834 68 189 2.0 6.0 0.00 0.00 0.01 68 1011.8
20260505180938 68 159 2.0 6.0 0.00 0.00 0.01 69 1012.1
20260505180046 68 196 2.0 8.0 0.00 0.00 0.01 70 1012.4
20260505175154 68 207 3.0 8.0 0.00 0.00 0.01 64 1012.4
20260505174514 68 151 3.0 6.0 0.00 0.00 0.01 66 1012.4
20260505173153 69 214 2.0 6.0 0.00 0.00 0.01 62 1012.8
20260505171618 70 228 3.0 8.0 0.00 0.00 0.00 56 1013.5
20260505170939 70 229 3.0 7.0 0.00 0.00 0.00 55 1013.5
20260505165833 70 240 4.0 7.0 0.00 0.00 0.00 53 1013.5
20260505165154 71 235 4.0 9.0 0.00 0.00 0.00 51 1013.5
20260505164509 72 263 3.0 11.0 0.00 0.00 0.00 51 1013.5
20260505162725 73 296 6.0 12.0 0.00 0.00 0.00 50 1013.5
20260505161835 72 269 5.0 15.0 0.00 0.00 0.00 50 1013.5
20260505161619 72 284 7.0 15.0 0.00 0.00 0.00 49 1013.8
20260505160516 72 305 8.0 13.0 0.00 0.00 0.00 52 1013.8
20260505153154 71 288 8.0 13.0 0.00 0.00 0.00 50 1013.5
20260505152725 70 256 6.0 12.0 0.00 0.00 0.00 55 1013.5
20260505151619 70 210 4.0 11.0 0.00 0.00 0.00 57 1013.1
20260505124514 62 213 3.0 7.0 0.00 0.00 0.00 68 1012.8
20260505124259 62 222 3.0 6.0 0.00 0.00 0.00 69 1012.8
20260505123153 61 215 1.0 6.0 0.00 0.00 0.00 70 1012.8
20260505121154 60 130 1.0 5.0 0.00 0.00 0.00 71 1012.4
20260505120513 59 164 2.0 3.0 0.00 0.00 0.00 73 1012.1
20260505115618 59 149 1.0 2.0 0.00 0.00 0.00 76 1012.4
20260505114939 58 28 1.0 1.0 0.00 0.00 0.00 76 1012.4
20260505114300 58 234 0.0 2.0 0.00 0.00 0.00 75 1012.4
20260505113153 58 167 1.0 3.0 0.00 0.00 0.00 75 1012.1
20260505112514 58 174 1.0 2.0 0.00 0.00 0.00 76 1012.1
20260505111154 58 210 1.0 2.0 0.00 0.00 0.00 76 1012.1
20260505110513 58 247 0.0 2.0 0.00 0.00 0.00 75 1011.8
20260505102044 60 229 2.0 4.0 0.00 0.00 0.00 70 1011.4
20260505100046 60 210 1.0 4.0 0.00 0.00 0.00 68 1011.4
20260505095620 60 205 1.0 5.0 0.00 0.00 0.00 68 1011.1
20260505093833 60 231 3.0 6.0 0.00 0.00 0.00 68 1011.1
20260505093153 61 210 2.0 7.0 0.00 0.00 0.00 68 1011.1
20260505091833 61 223 3.0 9.0 0.00 0.00 0.00 67 1010.7
20260505091154 61 222 3.0 7.0 0.00 0.00 0.00 68 1010.7
20260505090939 61 244 3.0 7.0 0.00 0.00 0.00 67 1010.7
20260505085833 61 216 2.0 4.0 0.00 0.00 0.00 67 1011.1
20260505085153 61 209 2.0 7.0 0.00 0.00 0.00 68 1010.7
20260505084514 61 230 2.0 7.0 0.00 0.00 0.00 67 1010.7
20260505084044 61 204 2.0 5.0 0.00 0.00 0.00 66 1010.7
20260505083404 61 218 2.0 4.0 0.00 0.00 0.00 66 1010.7
20260505075833 60 209 1.0 3.0 0.00 0.00 0.00 67 1011.1
20260505073834 58 188 2.0 3.0 0.00 0.00 0.00 74 1011.4
20260505073618 58 151 1.0 2.0 0.00 0.00 0.00 76 1011.4
20260505072725 58 173 1.0 2.0 0.00 0.00 0.00 78 1011.8
20260505072046 57 147 1.0 2.0 0.00 0.00 0.00 78 1011.8
20260505070513 57 58 0.0 1.0 0.00 0.00 0.00 78 1012.1
20260505070043 58 62 0.0 1.0 0.00 0.00 0.00 77 1012.1
20260505064724 59 65 0.0 2.0 0.00 0.00 0.00 73 1011.8
20260505063833 59 38 1.0 2.0 0.00 0.00 0.00 71 1011.8
20260505063153 60 164 0.0 1.0 0.00 0.00 0.00 70 1011.8
20260505062726 60 190 0.0 1.0 0.00 0.00 0.00 69 1012.1
20260505062300 60 161 1.0 2.0 0.00 0.00 0.00 67 1011.8
20260505061621 61 178 1.0 2.0 0.00 0.00 0.00 65 1011.8
20260505060728 61 199 1.0 2.0 0.00 0.00 0.00 67 1012.1
20260505055404 61 157 1.0 1.0 0.00 0.00 0.00 67 1012.1
20260505054513 62 262 0.0 2.0 0.00 0.00 0.00 65 1012.1
20260505053834 62 171 1.0 2.0 0.00 0.00 0.00 64 1012.4
20260505053153 63 193 1.0 2.0 0.00 0.00 0.00 63 1012.4
20260505052047 64 164 1.0 2.0 0.00 0.00 0.00 60 1012.4
20260505051153 64 138 1.0 2.0 0.00 0.00 0.00 58 1012.4
20260505035833 66 200 2.0 4.0 0.00 0.00 0.00 54 1012.1
20260505035153 65 198 2.0 4.0 0.00 0.00 0.00 55 1012.1
20260505033616 66 214 1.0 3.0 0.00 0.00 0.00 53 1012.1